Location: Staunton
(38.1490°N, 79.0720°W)
Time: 07:57:59
(UTC-04:00)

ISS - Pass Details

Date: 21 May 2018
Orbit: 402 x 407 km, 51.6° (Epoch: 26 May)

Event Time Altitude Azimuth Distance (km) Brightness Sun altitude
Rises 04:09:06 0° 315° (NW) 2,316 0.0 -18.5°
Reaches altitude 10° 04:11:18 10° 325° (NW) 1,455 -0.9 -18.2°
Maximum altitude 04:14:19 33° 32° (NNE) 691 -2.0 -17.8°
Drops below altitude 10° 04:17:18 10° 100° (E) 1,449 -0.6 -17.4°
Sets 04:19:30 0° 110° (ESE) 2,306 0.4 -17.1°
